GFSMA_925_thetae_159.txt.gz
Theta_e
345 343 341 343 345 346 349 349 349 343 343 345 344 341 335 339 338 341 346 348 346 345 343 345 339 345 347 345 344 345 347 346 345 344 342 346 343 345 347 346 343 343 343
346 343 342 343 345 346 348 348 347 346 337 337 345 337 334 338 336 340 345 346 345 345 346 347 341 346 347 345 346 344 343 344 346 345 341 345 342 344 347 347 344 342 342
342 342 341 342 344 345 348 347 346 346 344 343 343 343 340 335 336 341 345 347 347 346 346 348 343 346 347 346 346 345 344 344 344 346 341 343 344 342 344 346 345 343 342
339 340 342 340 343 346 348 348 348 347 344 336 339 337 340 338 344 342 347 347 349 348 347 349 344 348 348 347 346 345 346 344 344 344 343 343 345 344 343 345 344 343 342
336 336 341 337 344 344 348 348 348 345 340 337 338 339 340 339 343 347 348 347 347 346 349 349 345 345 345 347 346 345 345 346 345 345 344 344 343 345 343 344 344 343 343
341 340 336 340 341 340 348 349 348 345 343 338 338 339 337 342 345 344 345 343 344 348 350 349 348 347 340 341 343 345 346 345 348 343 343 342 344 344 344 343 344 343 343
346 342 336 343 341 342 350 350 346 346 343 339 336 336 340 342 338 339 345 345 349 348 348 348 347 348 343 339 340 343 345 346 348 344 342 342 343 343 344 344 344 343 343
348 335 340 339 337 348 351 352 347 341 338 343 343 339 339 342 345 338 343 342 341 344 343 338 345 347 346 340 338 341 343 347 348 343 343 342 341 342 343 343 343 343 343
349 346 342 336 334 346 352 353 352 351 350 348 345 344 342 343 344 338 338 335 334 342 344 337 338 343 346 343 340 340 341 344 343 342 343 343 342 342 342 343 343 343 343
349 348 344 345 342 348 351 353 353 352 351 349 346 341 342 346 343 333 338 339 337 340 340 334 336 341 341 341 340 339 341 342 343 341 340 341 341 342 343 343 343 343 343
350 350 348 347 349 350 349 350 352 351 350 351 351 346 339 340 338 333 337 338 342 345 340 336 339 338 342 340 340 340 339 340 339 337 337 340 338 338 340 341 341 341 340
348 349 349 347 346 347 348 350 351 350 351 350 350 349 347 348 344 339 337 336 339 342 344 342 337 338 339 343 340 340 340 340 340 339 337 335 337 341 341 338 337 337 337
348 346 348 349 348 350 351 352 352 350 353 352 351 351 348 347 349 345 343 338 339 342 342 342 340 339 335 345 342 340 340 340 340 339 339 337 336 335 339 339 337 334 333
348 348 348 350 349 350 350 350 352 350 350 352 350 351 348 349 349 348 347 342 340 341 343 343 342 340 342 347 342 340 340 341 341 342 343 342 339 337 333 336 338 338 338
347 347 348 348 348 349 349 350 348 348 348 350 349 349 349 348 349 348 349 348 343 342 342 342 340 340 342 340 347 342 341 341 341 342 342 343 343 342 340 339 334 335 337
345 345 348 348 348 348 349 350 349 350 348 349 349 350 348 349 349 349 350 348 346 343 340 343 343 340 340 341 346 344 341 341 342 342 342 342 342 343 343 342 341 340 335
346 345 346 347 347 348 349 348 351 349 350 347 346 348 348 350 349 348 349 349 348 346 342 344 345 344 339 346 347 343 339 338 343 342 343 342 342 342 342 343 343 343 342
347 347 348 347 347 348 349 350 349 349 350 350 350 349 349 349 350 348 349 347 347 349 347 346 346 346 342 346 341 341 339 340 345 345 345 345 344 344 344 343 342 343 343
346 347 347 348 348 347 347 348 349 349 349 349 349 350 346 348 350 349 348 347 348 348 347 346 346 347 344 346 345 338 341 344 344 340 340 340 340 340 341 342 342 343 343
348 348 349 348 349 348 350 350 350 350 350 348 350 350 349 348 347 349 348 348 347 347 347 346 345 346 347 345 346 343 341 340 334 333 334 334 332 331 332 336 340 342 342
347 348 349 348 349 349 349 349 350 350 349 350 350 349 350 348 348 347 347 347 346 346 346 344 346 345 345 347 347 346 341 336 329 328 328 326 325 325 325 325 328 336 341
349 349 348 348 349 348 348 348 346 347 348 349 349 349 349 347 347 346 345 343 340 343 345 345 342 344 344 345 346 345 341 331 330 330 329 324 323 323 321 320 320 320 321
346 346 346 346 345 345 345 345 345 345 347 347 347 346 346 346 346 347 347 346 345 345 345 345 345 342 344 340 340 345 338 334 335 334 327 325 327 322 319 319 318 318 316
344 343 343 343 342 342 344 344 343 345 346 346 345 346 346 346 346 346 345 344 342 342 344 344 342 337 337 337 337 340 344 341 337 335 328 327 323 319 317 316 313 309 309
342 342 341 341 340 339 340 338 337 343 344 341 340 340 341 342 343 345 341 337 334 330 330 332 330 329 330 332 334 339 341 339 331 328 327 332 321 319 316 316 311 309 310
339 338 336 335 335 335 337 336 335 339 340 338 336 337 338 340 342 343 339 336 332 326 324 320 320 322 324 325 329 331 334 335 326 322 323 327 324 319 317 316 312 314 311

GFSMA_925_thetae_162.txt.gz
Theta_e
343 342 341 342 345 347 348 347 346 344 341 343 344 342 336 336 337 336 339 344 344 343 342 345 339 343 345 344 343 344 347 347 345 344 342 342 344 345 347 346 344 344 344
346 344 342 343 345 347 347 346 345 344 340 335 340 343 336 335 337 338 337 344 343 345 345 346 343 344 346 345 345 345 344 343 344 345 344 343 344 344 344 347 345 342 341
342 342 341 342 344 346 347 347 346 345 342 336 342 341 337 338 335 342 343 345 345 346 346 347 345 346 345 344 345 344 342 342 342 344 344 341 344 341 344 346 346 344 341
339 340 341 341 343 347 347 347 347 346 344 340 339 341 338 336 339 342 344 346 348 347 347 348 345 346 345 345 344 344 345 344 343 343 344 342 343 341 343 345 346 345 342
337 336 339 338 341 348 347 347 347 342 341 339 338 338 340 339 341 343 346 346 347 347 348 348 345 345 346 346 344 344 345 345 345 344 344 343 343 344 343 343 345 344 343
342 341 338 338 340 341 348 348 346 344 342 340 338 339 337 342 341 343 344 343 344 346 348 349 346 345 344 343 344 343 344 344 345 343 343 343 343 344 343 343 344 344 343
345 338 335 341 340 341 349 349 345 344 343 339 335 336 338 340 337 342 345 346 347 346 346 346 346 345 341 342 342 343 344 343 345 343 341 342 343 343 343 344 345 343 343
347 341 341 340 338 348 351 349 347 342 340 342 342 338 344 342 343 338 343 342 343 344 339 343 346 346 342 340 341 341 342 343 346 346 342 342 342 343 343 344 344 343 343
348 344 342 338 337 347 351 351 352 350 349 347 343 345 347 348 343 338 339 336 336 344 338 335 339 346 345 340 339 341 340 342 343 347 343 343 342 343 343 343 344 343 343
348 348 343 341 338 347 351 351 352 350 350 348 346 341 341 345 347 338 338 339 338 342 337 338 338 342 343 340 340 340 340 340 343 345 342 342 343 343 343 343 343 343 343
349 349 347 347 347 349 349 350 350 351 350 350 350 344 340 340 337 335 343 339 341 344 337 339 337 340 340 340 340 339 338 338 339 339 341 341 341 343 343 343 343 343 342
347 348 349 347 346 347 348 349 350 350 351 351 350 347 347 347 345 340 342 338 340 341 342 341 340 338 341 342 341 340 339 339 338 336 334 336 342 343 344 344 342 341 340
346 346 347 348 348 349 350 351 351 349 351 351 350 351 347 346 348 344 342 339 342 342 343 342 340 338 337 346 341 340 340 340 338 337 336 334 332 336 339 341 341 341 340
348 347 347 348 349 349 349 349 350 350 349 351 349 350 349 348 348 347 346 343 346 343 342 343 342 340 343 345 341 340 340 341 341 341 341 339 336 333 332 335 335 335 336
348 347 347 348 348 347 348 349 349 348 347 350 349 349 348 348 349 349 348 348 344 349 348 342 339 341 341 342 343 341 340 341 342 342 343 342 341 340 338 334 334 336 337
347 346 345 347 348 347 347 348 350 348 349 348 347 348 349 348 348 349 349 348 346 343 347 342 341 339 340 340 345 344 341 341 341 342 342 342 342 343 342 340 339 335 334
346 345 345 345 346 346 348 347 349 350 349 348 348 346 347 349 349 348 349 348 348 346 344 343 345 341 338 346 346 343 340 338 342 342 342 342 342 342 343 343 343 341 341
346 345 345 346 347 346 347 347 347 348 348 349 349 349 348 349 349 348 349 347 347 348 346 345 345 345 342 346 344 341 340 339 344 345 345 344 344 343 342 342 342 343 343
346 346 346 347 347 347 346 347 346 346 348 348 349 348 348 347 346 349 348 348 347 347 347 345 345 346 343 345 341 339 339 342 343 342 341 341 340 340 340 341 342 342 343
347 347 346 347 346 347 347 348 348 349 349 349 349 348 349 348 346 347 348 348 347 346 345 345 344 345 346 345 345 342 339 339 337 336 336 333 331 330 332 335 339 341 342
348 348 347 348 348 348 348 347 349 349 349 349 349 348 349 349 348 348 348 347 347 345 344 345 342 344 344 346 343 343 340 335 331 330 329 326 325 325 325 326 333 338 339
348 348 348 348 349 348 348 348 347 346 346 347 348 349 349 348 347 346 346 345 343 341 342 344 343 342 342 343 344 342 340 334 335 332 327 327 323 322 320 320 320 321 324
346 347 347 346 345 344 345 345 344 344 346 346 347 347 347 347 346 345 345 345 344 344 344 344 344 340 340 338 338 342 341 338 336 335 328 327 322 324 322 318 317 315 312
343 343 343 342 342 343 343 343 342 343 345 344 344 345 346 346 345 345 343 341 338 339 341 341 338 332 332 334 336 338 340 338 336 333 328 330 324 319 316 315 310 308 309
341 341 341 342 342 342 342 342 338 339 342 340 340 339 341 341 343 343 340 337 332 327 327 330 326 324 327 330 332 337 337 337 331 328 327 330 321 318 315 314 308 308 310
339 337 336 337 339 339 340 340 339 337 339 340 339 339 339 340 341 342 339 335 329 323 322 322 322 323 324 325 328 333 333 334 328 322 322 325 322 318 316 313 311 312 313

GFSMA_925_thetae_165.txt.gz
Theta_e
342 341 341 344 345 347 346 347 343 342 343 341 342 341 336 339 337 338 335 341 344 343 343 345 343 342 345 344 344 344 344 345 345 344 344 345 344 346 347 347 345 344 344
346 342 342 344 345 347 348 347 346 347 344 338 344 344 337 335 337 338 343 344 343 344 345 346 345 343 346 346 345 343 344 343 343 344 343 344 343 344 344 347 346 344 343
342 341 341 343 344 346 347 347 346 347 343 343 343 344 341 341 338 342 344 346 348 346 346 347 345 346 345 344 344 344 345 343 342 343 344 344 341 344 344 344 347 344 342
339 341 341 341 343 347 347 350 348 351 349 345 341 342 343 340 340 342 345 346 348 350 348 347 345 345 345 344 343 343 344 345 344 343 343 343 342 343 341 343 346 346 343
337 338 339 339 341 347 347 348 349 344 346 342 343 344 341 340 344 344 346 348 348 349 351 349 345 341 344 344 343 343 344 344 345 344 344 343 342 344 342 344 346 346 344
338 340 340 338 340 340 348 349 346 344 344 345 342 343 341 342 342 343 343 347 350 349 351 353 351 347 342 342 342 344 343 343 344 343 343 343 343 344 343 343 346 346 345
345 340 335 336 340 339 348 349 347 346 347 340 341 341 343 345 343 344 345 347 349 347 347 350 350 349 346 341 341 342 343 342 344 342 342 342 343 343 343 343 345 345 344
346 341 341 340 338 347 350 350 346 345 345 345 349 345 349 347 347 346 346 345 346 347 344 349 349 350 347 346 344 341 342 343 344 345 342 342 343 343 343 344 345 344 343
347 344 341 339 337 345 350 352 352 351 353 349 344 351 352 354 350 344 343 343 341 347 342 340 345 349 349 347 346 343 340 342 343 345 343 342 343 343 344 344 344 343 343
349 346 342 339 334 347 350 352 355 354 352 354 350 344 348 350 350 344 342 343 343 346 343 343 343 346 348 346 343 341 341 340 342 341 342 343 342 343 343 343 343 343 343
349 348 346 346 345 348 349 350 355 354 354 354 354 349 348 347 342 345 348 346 346 348 343 345 343 344 346 347 347 342 339 338 337 340 341 342 344 344 344 343 343 343 343
347 347 348 347 346 348 349 351 350 350 352 353 353 351 352 351 353 349 352 349 348 347 347 346 346 342 344 346 345 340 339 338 336 334 338 342 343 344 344 344 344 343 342
349 347 347 348 347 348 349 351 349 349 353 354 349 350 351 352 351 350 351 350 350 347 348 346 341 340 345 349 347 345 340 338 337 336 335 333 339 342 343 343 344 344 344
350 346 346 347 348 348 349 348 347 353 349 349 349 347 353 353 352 352 351 351 354 349 348 349 347 344 348 350 348 341 344 340 340 341 339 336 333 333 336 337 339 340 340
350 347 347 347 347 347 346 349 348 347 347 348 348 348 352 352 353 353 353 351 351 353 351 348 346 345 345 349 348 348 347 341 341 342 343 342 340 338 334 334 336 337 338
347 347 347 345 347 348 348 347 346 347 347 350 349 347 350 349 347 352 353 352 350 350 352 347 346 346 346 346 348 349 348 342 342 342 342 342 343 343 341 340 337 334 335
346 346 345 345 345 347 350 346 346 346 346 346 347 349 351 349 350 350 350 352 352 350 350 349 350 346 347 348 346 346 344 341 341 342 342 342 342 342 343 343 342 340 339
347 347 346 345 346 348 348 346 347 352 346 349 348 349 349 350 349 345 349 347 350 348 350 352 351 348 348 350 347 343 342 339 339 344 343 343 343 342 342 342 342 343 343
346 346 346 347 349 348 349 349 348 351 346 349 351 351 350 351 347 348 346 346 349 350 347 350 351 351 349 347 345 341 339 338 337 342 340 339 339 339 340 340 341 342 342
347 346 346 345 348 348 349 352 350 346 347 352 352 352 348 348 350 351 347 347 346 346 345 345 346 351 351 348 344 344 342 338 336 332 332 330 329 329 331 334 338 340 341
348 346 345 346 346 347 349 347 347 347 348 349 350 352 350 350 347 348 347 347 347 346 347 343 347 349 349 348 346 344 344 340 334 333 330 325 324 324 324 328 334 337 339
350 348 348 352 349 347 347 347 347 346 347 350 351 352 349 348 347 346 346 344 344 344 347 348 344 348 345 344 345 343 340 341 344 335 332 326 324 325 320 319 320 323 322
348 347 347 346 345 346 346 346 345 346 345 345 346 348 348 346 346 346 345 343 343 343 344 343 349 340 344 339 338 343 341 340 343 336 334 333 324 320 317 316 315 315 315
343 344 344 343 343 343 343 342 343 343 344 343 343 344 345 344 345 344 343 341 339 339 339 338 336 330 331 333 335 338 341 338 336 332 333 337 327 320 314 309 308 309 309
340 340 339 339 340 341 342 340 339 340 341 339 338 339 340 341 342 343 340 336 328 323 323 325 326 326 328 331 332 338 337 338 336 327 327 331 324 316 311 308 309 309 311
340 338 336 337 338 338 340 340 340 339 338 337 336 337 339 340 340 340 337 330 325 322 322 322 323 325 326 327 330 333 333 336 330 325 323 325 319 317 314 310 309 310 312

GFSMA_925_thetae_168.txt.gz
Theta_e
349 348 350 352 353 354 353 354 353 353 351 347 347 348 345 345 344 345 344 343 342 343 345 346 345 343 345 345 344 344 344 344 344 344 344 346 348 346 346 347 345 344 344
351 349 351 351 351 353 354 354 355 354 353 349 351 346 345 344 347 347 347 349 343 344 345 346 346 346 346 345 345 345 345 343 342 342 343 343 344 342 346 347 347 345 344
351 350 349 350 351 353 356 356 356 355 352 350 349 348 347 347 348 351 350 349 350 349 345 346 346 345 345 346 344 343 345 346 343 342 343 343 345 343 344 344 347 346 345
348 350 348 349 348 353 354 354 354 353 353 349 346 348 348 348 347 350 349 350 351 350 350 348 346 343 347 344 343 342 343 344 344 344 343 344 343 341 343 343 344 347 346
346 348 347 348 349 353 354 353 354 352 350 347 346 347 346 348 342 346 348 351 351 350 350 350 346 343 343 347 344 345 345 343 344 344 344 344 342 342 344 342 342 346 346
345 347 346 347 348 348 354 354 355 352 349 349 345 345 345 349 349 346 346 350 352 351 349 351 350 349 341 341 341 344 345 343 344 342 342 343 343 343 341 343 344 345 346
352 349 346 346 348 347 355 356 353 353 352 350 350 347 348 349 347 349 351 351 352 349 350 351 349 349 348 345 344 341 342 344 345 343 342 342 343 343 343 342 343 346 345
353 350 349 349 348 351 356 356 356 352 352 352 352 351 352 351 349 348 347 349 351 350 348 350 350 351 349 346 344 338 341 343 344 344 342 343 343 343 343 343 344 345 345
353 352 350 349 348 352 355 356 357 357 353 354 354 353 353 350 350 346 346 347 346 347 346 345 348 351 350 348 348 346 338 343 344 344 343 342 343 343 343 344 345 344 343
354 352 349 347 345 353 354 356 355 356 354 353 354 349 352 352 351 349 346 346 346 347 348 346 347 350 351 348 345 339 337 339 342 343 344 343 343 343 344 344 343 343 343
355 353 352 352 351 354 356 354 354 355 354 353 353 352 355 352 350 349 350 349 349 350 348 346 346 347 350 349 348 342 337 335 338 341 343 344 344 344 343 343 343 343 343
351 354 354 354 355 356 355 354 354 355 356 354 352 353 351 352 352 350 348 349 350 350 349 349 348 347 348 349 348 342 338 336 334 335 341 343 344 344 345 345 344 344 344
348 351 355 355 352 354 356 353 354 354 355 356 355 352 351 352 353 352 350 348 348 349 350 349 345 344 346 349 349 346 340 338 336 334 332 339 342 344 344 345 345 344 344
349 352 352 353 354 354 354 352 351 350 353 353 354 352 351 350 350 352 349 351 349 349 350 352 347 347 348 350 350 344 345 340 341 339 337 332 331 337 340 342 343 344 343
350 351 352 353 355 353 354 351 350 350 351 351 351 352 351 350 351 350 351 351 351 352 356 351 349 348 349 350 350 349 349 342 342 343 342 340 337 332 332 335 335 337 337
351 352 353 354 350 350 352 350 351 350 351 351 349 352 352 352 350 349 349 349 349 347 352 347 349 350 349 350 350 350 350 345 342 342 342 343 343 341 340 337 334 335 337
349 349 351 354 351 350 349 351 351 350 350 350 349 351 352 352 350 350 349 349 349 349 346 351 351 351 352 350 350 350 348 347 344 342 342 343 343 343 343 343 341 339 336
349 351 353 353 353 353 353 351 350 349 349 350 351 351 351 350 352 351 349 351 351 349 348 352 352 352 353 350 350 350 348 345 344 342 342 342 343 342 342 342 343 343 343
352 352 352 350 349 351 351 350 351 352 351 349 350 350 351 351 352 350 351 350 350 350 350 349 352 351 352 350 347 348 347 346 341 341 339 339 339 339 339 340 340 341 342
353 352 353 350 349 349 351 351 351 351 351 350 351 353 353 351 351 352 351 351 350 350 350 350 349 347 353 351 350 349 347 346 342 336 334 331 327 327 332 334 336 338 340
353 352 353 351 350 351 351 353 351 352 353 352 352 353 353 352 349 348 349 351 347 349 349 350 347 349 349 351 349 347 348 345 342 341 334 329 325 323 323 326 331 336 338
352 352 353 351 351 350 349 346 347 351 353 353 353 353 354 348 347 347 347 345 343 348 348 347 344 347 349 349 349 347 344 344 345 339 335 332 328 322 319 318 318 321 325
350 351 352 352 352 353 345 347 347 349 351 352 351 353 353 349 347 346 345 345 343 343 342 343 345 346 349 347 347 348 345 345 343 338 339 333 326 321 318 313 310 316 315
352 352 353 352 350 345 344 344 344 350 349 347 346 346 347 347 346 347 343 336 333 334 338 338 341 335 335 335 340 344 344 339 336 335 337 333 324 320 315 313 309 308 310
344 345 345 345 344 337 340 341 343 347 346 343 338 339 343 345 342 343 339 333 330 324 325 327 329 329 331 332 335 340 342 340 337 329 331 328 320 315 311 311 313 313 311
340 339 338 337 336 336 340 341 341 343 343 338 334 336 338 339 340 340 337 332 326 324 324 327 328 326 326 328 332 335 338 340 333 327 325 323 317 315 313 310 310 310 311

GFSMA_925_thetae_171.txt.gz
Theta_e
349 349 353 351 351 350 352 353 354 356 354 350 351 349 348 347 347 346 348 342 343 344 346 345 346 346 349 348 346 345 345 345 345 344 345 346 348 347 347 348 345 345 345
351 351 354 351 350 349 351 353 356 356 355 351 350 348 346 347 349 350 351 346 343 344 345 346 346 344 346 346 345 345 346 344 343 342 343 343 344 345 346 346 346 346 344
354 353 352 351 352 353 356 356 358 356 353 351 350 351 349 349 351 353 350 352 351 349 346 345 346 342 348 346 345 344 344 344 344 342 342 343 342 344 343 345 347 346 345
353 353 350 350 351 354 351 350 354 352 350 349 349 350 349 350 347 353 350 350 349 349 350 344 343 340 347 347 347 344 344 344 344 344 343 343 343 345 344 344 344 346 346
350 353 349 350 353 353 351 351 353 353 350 350 348 347 348 349 346 346 350 350 349 349 350 348 348 345 338 342 343 347 346 344 344 344 344 344 344 342 342 342 343 343 346
349 349 347 350 350 350 351 353 356 352 350 351 347 347 347 350 351 350 349 350 350 348 349 348 352 349 345 345 340 343 346 344 344 342 343 344 343 342 343 342 342 342 345
351 353 349 350 349 348 357 356 355 354 351 353 353 349 349 350 348 348 350 350 350 347 348 350 350 350 348 346 340 337 344 347 346 344 342 342 343 343 342 343 343 344 345
354 353 352 350 352 350 355 357 356 352 350 353 352 352 350 346 350 347 348 349 351 348 348 349 349 349 347 348 346 341 339 343 346 344 342 343 343 343 342 342 343 345 345
354 355 352 354 352 352 355 355 357 352 354 351 355 352 354 356 347 346 348 348 347 347 346 347 349 350 347 347 350 345 337 343 343 345 343 343 343 343 343 343 344 345 345
354 354 351 352 353 352 354 355 354 356 348 350 352 350 353 352 358 351 347 349 349 349 349 348 349 350 349 350 344 339 335 338 342 344 345 343 343 344 344 345 344 344 343
354 354 354 352 351 355 355 355 356 354 354 350 351 349 354 350 351 349 351 350 349 349 349 346 347 348 349 347 350 341 335 334 338 341 344 345 344 343 344 344 344 343 343
350 354 354 354 353 355 353 354 356 355 355 354 353 346 347 351 349 351 347 347 347 348 348 349 348 347 346 349 347 344 338 334 332 338 343 344 345 345 345 344 344 344 343
348 354 354 355 354 354 354 354 355 356 354 355 354 351 348 347 349 351 350 346 351 347 350 348 346 347 347 348 349 343 339 337 335 332 338 342 345 345 346 345 345 345 345
345 353 354 355 354 354 355 355 353 352 356 353 353 354 350 348 346 351 349 348 350 348 350 351 348 347 348 350 350 344 343 339 340 338 334 332 339 343 344 345 345 345 344
349 354 352 352 353 354 355 355 352 352 353 352 351 352 352 350 349 348 346 351 346 348 350 347 349 349 349 350 350 350 350 341 341 342 341 338 333 333 335 339 341 342 342
353 353 352 353 353 354 353 355 352 352 353 352 353 354 352 351 347 347 350 348 350 348 352 347 349 350 349 352 350 351 351 347 342 342 342 343 342 339 336 333 334 335 336
352 353 353 352 353 353 353 354 353 354 353 352 352 352 351 352 350 351 347 348 348 348 351 350 353 353 354 352 351 353 349 348 344 342 342 343 343 343 343 342 340 336 334
353 352 353 353 354 352 353 354 354 353 352 351 352 351 351 350 353 352 348 351 350 350 351 352 354 352 356 353 353 351 349 347 342 341 343 342 342 343 343 343 343 343 343
352 352 353 354 354 352 352 353 353 353 351 350 351 351 350 351 352 353 353 352 350 351 351 349 353 352 355 353 353 352 350 347 341 341 337 338 339 339 339 339 340 341 342
353 353 353 354 353 352 352 352 353 353 352 351 351 351 352 353 352 353 353 353 351 351 350 351 350 349 352 352 352 350 349 347 339 335 334 328 327 329 332 334 336 338 340
353 353 353 354 353 352 351 353 353 353 353 352 352 352 353 354 352 350 350 350 349 348 347 348 349 349 349 349 351 351 351 346 342 338 333 331 325 324 323 325 330 334 336
354 353 354 352 353 350 349 350 349 351 352 353 353 354 355 351 349 347 348 349 347 346 349 346 345 345 345 347 349 348 348 346 343 339 332 331 328 321 318 319 319 322 327
355 355 353 354 353 352 349 350 346 348 351 353 353 353 353 352 349 347 346 345 344 343 343 347 347 346 348 347 348 347 347 347 343 339 334 327 323 319 316 314 314 314 315
353 353 354 354 353 351 350 346 346 349 351 351 350 350 353 351 351 349 348 344 338 337 339 340 340 336 338 339 342 346 347 341 338 336 334 325 320 318 314 311 312 312 310
352 353 353 353 351 346 345 343 344 350 348 346 343 343 347 348 343 346 345 341 333 327 328 329 330 331 332 333 338 342 343 341 338 331 330 322 318 313 312 312 310 310 311
344 344 345 345 341 341 340 340 344 348 347 343 341 338 339 340 341 341 344 339 332 325 326 328 328 328 328 331 335 336 339 340 332 329 326 321 315 313 312 313 313 313 313

GFSMA_925_thetae_174.txt.gz
Theta_e
347 347 353 351 349 345 350 350 353 356 354 350 351 349 348 346 347 347 343 341 342 344 346 346 346 343 349 348 347 347 346 345 346 345 344 345 346 347 346 346 344 344 345
346 351 347 354 350 349 355 356 349 355 353 351 349 348 346 346 349 350 348 342 343 344 344 345 345 341 346 346 346 345 345 344 342 344 343 346 344 346 346 345 346 344 343
353 354 353 351 352 353 352 350 353 358 354 352 351 350 350 347 352 353 350 345 344 345 345 344 342 339 346 346 344 342 343 344 344 341 341 342 342 344 343 345 345 345 345
354 350 351 352 351 351 350 350 352 352 350 349 349 351 349 352 346 353 353 347 348 349 344 344 343 337 345 346 344 344 343 342 344 344 342 342 343 342 344 342 344 346 346
351 353 351 351 346 353 351 348 349 350 351 350 349 347 349 349 342 345 350 352 352 348 343 346 348 341 345 342 340 343 344 345 344 343 344 344 346 344 343 343 343 344 345
351 347 350 350 347 351 353 356 352 350 351 351 353 346 345 346 350 349 350 351 350 351 349 351 350 346 345 341 335 337 345 345 345 343 344 344 344 344 342 341 342 343 344
349 352 350 350 346 350 350 356 356 357 350 353 347 337 333 340 346 350 350 350 349 348 349 350 351 349 346 344 342 334 345 346 345 343 343 343 344 343 343 341 343 342 343
353 354 352 351 352 351 352 355 357 352 344 350 340 338 346 336 336 341 349 351 347 348 349 347 350 349 349 348 347 335 342 345 346 344 343 343 343 343 343 343 341 343 344
353 355 352 353 354 349 347 352 354 351 343 349 352 352 347 342 340 341 348 348 348 348 347 347 349 346 349 349 348 341 335 341 345 345 344 344 343 343 343 342 343 344 345
353 355 353 353 354 353 350 351 355 354 352 346 344 349 353 349 350 349 351 349 346 349 348 349 347 348 346 349 342 336 331 336 341 345 345 344 344 343 344 344 345 345 345
353 354 354 352 352 352 353 356 355 353 353 352 355 352 352 341 334 346 353 352 350 350 346 346 347 346 348 350 347 339 334 331 339 344 345 345 344 345 344 344 344 344 344
351 354 355 355 353 350 338 355 355 357 353 354 352 354 355 348 341 349 355 354 352 351 347 347 348 346 349 348 347 340 338 333 332 341 344 344 345 345 346 343 343 343 343
350 351 353 354 353 352 355 354 355 355 353 354 353 352 352 352 344 342 341 351 351 347 347 348 346 348 347 348 348 342 339 338 334 331 340 344 344 345 346 345 345 344 344
346 354 352 352 354 355 352 355 354 354 351 354 354 353 352 351 349 346 348 351 354 349 351 351 347 345 348 349 348 343 340 340 340 336 330 335 341 344 345 345 345 345 344
347 348 352 355 354 350 352 355 353 354 355 351 352 352 351 347 346 349 351 351 350 355 349 347 350 348 349 350 348 351 347 341 341 341 339 334 331 335 339 342 343 344 344
348 332 350 352 353 353 354 355 355 353 352 353 353 352 351 352 352 352 346 347 349 351 352 346 345 351 351 352 349 352 350 347 341 341 342 342 340 337 333 332 334 336 337
352 351 350 354 353 353 353 354 354 352 352 352 352 351 351 351 350 351 351 349 348 350 349 350 348 350 352 351 350 350 349 347 344 342 342 342 342 342 342 341 337 333 333
352 353 353 353 352 353 354 354 354 352 350 350 351 351 351 350 352 352 350 350 349 350 350 350 350 353 353 353 352 349 349 348 345 341 342 342 342 343 343 343 343 343 341
352 353 353 354 354 352 352 353 354 352 352 352 350 350 351 348 351 351 348 352 352 350 352 353 351 351 351 353 352 348 347 343 342 341 341 340 339 339 339 339 339 340 342
351 353 352 352 353 354 353 354 353 352 352 352 352 352 352 353 351 351 352 352 352 350 349 349 349 349 348 347 347 349 345 342 336 333 330 328 328 330 332 335 336 338 340
351 352 353 352 353 353 352 353 353 353 353 353 353 353 353 352 350 351 350 350 349 349 346 343 345 347 345 341 347 347 347 340 335 334 332 328 325 323 323 329 330 330 333
352 352 351 353 353 353 351 350 352 351 353 352 352 353 353 351 350 349 347 348 349 347 346 349 347 345 344 346 344 346 346 343 341 334 329 327 325 320 319 320 324 327 328
351 352 353 354 354 352 350 349 350 349 347 350 353 353 352 353 350 347 346 345 344 343 343 344 348 345 345 343 344 343 344 346 343 333 329 322 321 317 315 315 316 318 320
354 354 352 353 352 351 351 350 350 346 347 352 350 349 352 352 351 351 349 343 338 337 340 339 341 337 337 339 343 345 345 342 338 333 329 320 318 314 312 311 310 309 309
351 351 351 350 351 349 348 347 345 348 350 347 347 345 346 348 346 347 345 337 330 327 328 329 328 330 332 334 340 342 340 339 336 330 328 319 316 312 311 310 310 310 312
349 346 347 348 347 345 343 343 344 350 347 344 341 338 339 340 342 344 343 337 330 326 328 328 327 328 330 333 336 338 339 339 332 327 323 319 314 313 313 312 312 314 314